Location: Newark
(37.8333°N, 119.5000°W)
Time: 23:23:48
(UTC+00:00)

Tiros 1 despin weight - Pass Details

Date: 26 August 2019
Orbit: 594 x 643 km, 48.2° (Epoch: 17 October)

Event Time Altitude Azimuth Distance (km) Brightness Sun altitude
Rises 04:23:49 0° 199° (SSW) 2,809 ? -20.1°
Enters shadow 04:23:58 - 199° (SSW) 2,754 ? -20.1°
Reaches altitude 10° 04:26:29 10° 184° (S) 1,913 - -20.6°
Maximum altitude 04:29:51 22° 133° (SE) 1,313 - -21.1°
Drops below altitude 10° 04:33:15 10° 83° (E) 1,930 - -21.7°
Sets 04:35:57 0° 68° (ENE) 2,842 - -22.1°
